| time (UTC) | temp F | wind direction | speed MPH | gust MPH | rain 1hr in | rain 24hr in | rain mn in | humidity % | barometer mb |
| 20260506043742 | 49 | 42 | 4.0 | 12.0 | 0.00 | 0.00 | 0.00 | 94 | 1008.3 |
| 20260506042739 | 49 | 270 | 4.0 | 11.0 | 0.00 | 0.00 | 0.00 | 95 | 1008.3 |
| 20260506041715 | 49 | 359 | 4.0 | 10.0 | 0.00 | 0.00 | 0.00 | 94 | 1008.5 |
| 20260506040706 | 49 | 316 | 2.0 | 9.0 | 0.00 | 0.00 | 0.00 | 95 | 1008.7 |
| 20260506035647 | 49 | 11 | 3.0 | 9.0 | 0.00 | 0.00 | 0.00 | 95 | 1008.9 |
| 20260506034631 | 49 | 321 | 3.0 | 8.0 | 0.00 | 0.00 | 0.00 | 94 | 1008.6 |
| 20260506033636 | 49 | 323 | 1.0 | 8.0 | 0.00 | 0.00 | 0.00 | 95 | 1008.8 |
| 20260506032609 | 49 | 327 | 3.0 | 8.0 | 0.00 | 0.00 | 0.00 | 94 | 1008.2 |
| 20260506031616 | 49 | 347 | 3.0 | 11.0 | 0.00 | 0.00 | 0.00 | 94 | 1008.0 |
| 20260506030549 | 49 | 331 | 4.0 | 11.0 | 0.00 | 0.00 | 0.00 | 94 | 1008.3 |
| 20260506025523 | 49 | 323 | 3.0 | 8.0 | 0.00 | 0.00 | 0.00 | 94 | 1008.3 |
| 20260506023357 | 49 | 339 | 3.0 | 8.0 | 0.00 | 0.00 | 0.00 | 94 | 1008.2 |
| 20260506022406 | 49 | 331 | 2.0 | 7.0 | 0.00 | 0.00 | 0.00 | 94 | 1008.6 |
| 20260506021429 | 49 | 45 | 2.0 | 7.0 | 0.00 | 0.00 | 0.00 | 94 | 1007.7 |
| 20260506015252 | 49 | 359 | 3.0 | 8.0 | 0.00 | 0.00 | 0.00 | 93 | 1007.8 |
| 20260506014226 | 49 | 56 | 3.0 | 8.0 | 0.00 | 0.00 | 0.00 | 94 | 1007.9 |
| 20260506013228 | 49 | 336 | 2.0 | 8.0 | 0.00 | 0.00 | 0.00 | 93 | 1008.2 |
| 20260506011105 | 50 | 30 | 2.0 | 8.0 | 0.00 | 0.00 | 0.00 | 93 | 1007.6 |
| 20260506010114 | 50 | 22 | 2.0 | 8.0 | 0.00 | 0.00 | 0.00 | 93 | 1008.4 |
| 20260506004008 | 49 | 35 | 3.0 | 9.0 | 0.00 | 0.00 | 0.00 | 93 | 1008.3 |
| 20260506003006 | 49 | 337 | 6.0 | 12.0 | 0.00 | 0.00 | 0.00 | 93 | 1008.1 |
| 20260506002014 | 50 | 320 | 4.0 | 12.0 | 0.00 | 0.00 | 0.00 | 92 | 1008.3 |
| 20260506001002 | 50 | 331 | 6.0 | 12.0 | 0.00 | 0.00 | 0.00 | 93 | 1008.0 |
| 20260505235951 | 51 | 22 | 5.0 | 11.0 | 0.00 | 0.00 | 0.00 | 93 | 1007.7 |
| 20260505235012 | 51 | 14 | 4.0 | 11.0 | 0.00 | 0.00 | 0.00 | 93 | 1008.2 |
| 20260505233946 | 52 | 318 | 4.0 | 10.0 | 0.00 | 0.00 | 0.00 | 93 | 1007.9 |
| 20260505232941 | 52 | 354 | 3.0 | 13.0 | 0.00 | 0.00 | 0.00 | 93 | 1007.8 |
| 20260505231943 | 53 | 348 | 4.0 | 13.0 | 0.00 | 0.00 | 0.00 | 93 | 1008.3 |
| 20260505231000 | 54 | 266 | 4.0 | 9.0 | 0.00 | 0.00 | 0.00 | 93 | 1007.9 |
| 20260505230009 | 54 | 347 | 3.0 | 9.0 | 0.00 | 0.00 | 0.00 | 92 | 1007.5 |
| 20260505224955 | 55 | 359 | 4.0 | 14.0 | 0.00 | 0.00 | 0.00 | 91 | 1007.8 |
| 20260505224005 | 58 | 349 | 3.0 | 14.0 | 0.00 | 0.00 | 0.00 | 88 | 1007.6 |
| 20260505222948 | 61 | 255 | 2.0 | 5.0 | 0.00 | 0.00 | 0.00 | 93 | 1007.0 |
| 20260505222010 | 61 | 230 | 1.0 | 6.0 | 0.00 | 0.00 | 0.00 | 93 | 1006.9 |
| 20260505220953 | 61 | 169 | 2.0 | 6.0 | 0.00 | 0.00 | 0.00 | 93 | 1006.9 |
| 20260505215941 | 61 | 198 | 3.0 | 6.0 | 0.00 | 0.00 | 0.00 | 92 | 1007.1 |
| 20260505214910 | 62 | 154 | 2.0 | 4.0 | 0.00 | 0.00 | 0.00 | 92 | 1007.1 |
| 20260505213921 | 62 | 146 | 2.0 | 8.0 | 0.00 | 0.00 | 0.00 | 92 | 1007.1 |
| 20260505211752 | 62 | 225 | 3.0 | 9.0 | 0.00 | 0.00 | 0.00 | 91 | 1007.2 |
| 20260505210725 | 62 | 239 | 3.0 | 8.0 | 0.00 | 0.00 | 0.00 | 91 | 1007.3 |
| 20260505205736 | 62 | 221 | 3.0 | 8.0 | 0.00 | 0.00 | 0.00 | 90 | 1007.3 |
| 20260505204734 | 62 | 227 | 3.0 | 8.0 | 0.00 | 0.00 | 0.00 | 90 | 1007.4 |
| 20260505203737 | 62 | 200 | 3.0 | 9.0 | 0.00 | 0.00 | 0.00 | 90 | 1007.6 |
| 20260505202757 | 62 | 220 | 4.0 | 9.0 | 0.00 | 0.00 | 0.00 | 90 | 1007.5 |
| 20260505201750 | 62 | 250 | 4.0 | 13.0 | 0.00 | 0.00 | 0.00 | 89 | 1007.5 |
| 20260505200804 | 62 | 257 | 5.0 | 13.0 | 0.00 | 0.00 | 0.00 | 90 | 1007.5 |
| 20260505195730 | 62 | 238 | 4.0 | 11.0 | 0.00 | 0.00 | 0.00 | 90 | 1007.6 |
| 20260505194738 | 61 | 156 | 3.0 | 10.0 | 0.00 | 0.00 | 0.00 | 90 | 1007.7 |
| 20260505193746 | 61 | 188 | 3.0 | 9.0 | 0.00 | 0.00 | 0.00 | 91 | 1008.0 |
| 20260505192725 | 61 | 225 | 4.0 | 8.0 | 0.00 | 0.00 | 0.00 | 90 | 1008.0 |
| 20260505191708 | 60 | 197 | 3.0 | 8.0 | 0.00 | 0.00 | 0.00 | 91 | 1008.3 |
| 20260505190716 | 60 | 208 | 2.0 | 6.0 | 0.00 | 0.00 | 0.00 | 91 | 1008.2 |
| 20260505185646 | 60 | 170 | 3.0 | 6.0 | 0.00 | 0.00 | 0.00 | 90 | 1008.0 |
| 20260505184710 | 60 | 134 | 2.0 | 6.0 | 0.00 | 0.00 | 0.00 | 91 | 1008.3 |
| 20260505181418 | 60 | 221 | 3.0 | 6.0 | 0.00 | 0.00 | 0.00 | 90 | 1008.5 |
| 20260505180440 | 61 | 192 | 2.0 | 9.0 | 0.00 | 0.00 | 0.00 | 89 | 1008.8 |
| 20260505175459 | 61 | 98 | 4.0 | 9.0 | 0.00 | 0.00 | 0.00 | 88 | 1008.8 |
| 20260505174429 | 61 | 214 | 4.0 | 8.0 | 0.00 | 0.00 | 0.00 | 86 | 1009.1 |
| 20260505173435 | 62 | 154 | 3.0 | 12.0 | 0.00 | 0.00 | 0.00 | 84 | 1009.1 |
| 20260505172420 | 63 | 353 | 6.0 | 12.0 | 0.00 | 0.00 | 0.00 | 82 | 1009.4 |
| 20260505171412 | 63 | 172 | 6.0 | 13.0 | 0.00 | 0.00 | 0.00 | 79 | 1009.4 |
| 20260505164204 | 64 | 229 | 6.0 | 12.0 | 0.00 | 0.00 | 0.00 | 77 | 1009.1 |
| 20260505163220 | 64 | 234 | 6.0 | 12.0 | 0.00 | 0.00 | 0.00 | 77 | 1009.1 |
| 20260505162221 | 64 | 180 | 5.0 | 11.0 | 0.00 | 0.00 | 0.00 | 76 | 1009.0 |
| 20260505161156 | 64 | 226 | 4.0 | 11.0 | 0.00 | 0.00 | 0.00 | 79 | 1009.1 |
| 20260505160211 | 64 | 145 | 4.0 | 9.0 | 0.00 | 0.00 | 0.00 | 79 | 1008.9 |
| 20260505153016 | 63 | 186 | 4.0 | 11.0 | 0.00 | 0.00 | 0.00 | 81 | 1009.0 |
| 20260505151943 | 63 | 189 | 4.0 | 11.0 | 0.00 | 0.00 | 0.00 | 82 | 1008.9 |
| 20260505150948 | 63 | 148 | 4.0 | 15.0 | 0.00 | 0.00 | 0.00 | 82 | 1009.1 |
| 20260505124818 | 60 | 216 | 2.0 | 6.0 | 0.00 | 0.00 | 0.00 | 89 | 1008.3 |
| 20260505123843 | 59 | 184 | 3.0 | 6.0 | 0.00 | 0.00 | 0.00 | 89 | 1008.1 |
| 20260505120523 | 58 | 218 | 1.0 | 7.0 | 0.00 | 0.00 | 0.00 | 91 | 1007.8 |
| 20260505114326 | 58 | 233 | 4.0 | 10.0 | 0.00 | 0.00 | 0.00 | 92 | 1007.6 |
| 20260505112206 | 57 | 226 | 4.0 | 12.0 | 0.00 | 0.00 | 0.00 | 93 | 1007.8 |
| 20260505111135 | 57 | 150 | 4.0 | 10.0 | 0.00 | 0.00 | 0.00 | 93 | 1007.8 |
| 20260505110126 | 57 | 180 | 4.0 | 10.0 | 0.00 | 0.00 | 0.00 | 93 | 1008.6 |
| 20260505102049 | 57 | 198 | 4.0 | 8.0 | 0.00 | 0.00 | 0.00 | 93 | 1008.0 |
| 20260505101019 | 58 | 347 | 3.0 | 9.0 | 0.00 | 0.00 | 0.00 | 93 | 1007.4 |
| 20260505094809 | 58 | 121 | 3.0 | 7.0 | 0.00 | 0.00 | 0.00 | 93 | 1007.7 |
| 20260505093832 | 58 | 128 | 3.0 | 6.0 | 0.00 | 0.00 | 0.00 | 93 | 1008.2 |
| 20260505092808 | 58 | 148 | 0.0 | 4.0 | 0.00 | 0.00 | 0.00 | 93 | 1008.8 |
| 20260505091744 | 58 | 209 | 0.0 | 0.0 | 0.00 | 0.00 | 0.00 | 93 | 1009.2 |
| 20260505090715 | 58 | 287 | 0.0 | 0.0 | 0.00 | 0.00 | 0.00 | 92 | 1009.5 |
| 20260505085735 | 58 | 284 | 0.0 | 2.0 | 0.00 | 0.00 | 0.00 | 92 | 1010.0 |
| 20260505084707 | 58 | 290 | 1.0 | 4.0 | 0.00 | 0.00 | 0.00 | 92 | 1010.1 |
| 20260505082517 | 58 | 47 | 3.0 | 7.0 | 0.00 | 0.00 | 0.00 | 91 | 1009.9 |
| 20260505080326 | 59 | 338 | 3.0 | 7.0 | 0.00 | 0.00 | 0.00 | 89 | 1009.1 |
| 20260505075330 | 60 | 304 | 4.0 | 11.0 | 0.00 | 0.00 | 0.00 | 87 | 1008.6 |
| 20260505074339 | 62 | 316 | 5.0 | 16.0 | 0.00 | 0.00 | 0.00 | 78 | 1008.0 |
| 20260505073319 | 65 | 356 | 3.0 | 16.0 | 0.00 | 0.00 | 0.00 | 67 | 1007.3 |
| 20260505072308 | 66 | 352 | 3.0 | 8.0 | 0.00 | 0.00 | 0.00 | 63 | 1005.7 |
| 20260505070158 | 67 | 39 | 2.0 | 12.0 | 0.00 | 0.00 | 0.00 | 60 | 1006.3 |
| 20260505065135 | 69 | 346 | 4.0 | 12.0 | 0.00 | 0.00 | 0.00 | 56 | 1006.5 |
| 20260505064110 | 70 | 268 | 2.0 | 11.0 | 0.00 | 0.00 | 0.00 | 52 | 1006.1 |
| 20260505063105 | 69 | 252 | 4.0 | 11.0 | 0.00 | 0.00 | 0.00 | 51 | 1005.6 |
| 20260505062037 | 69 | 221 | 4.0 | 12.0 | 0.00 | 0.00 | 0.00 | 52 | 1005.5 |
| 20260505061101 | 69 | 241 | 6.0 | 13.0 | 0.00 | 0.00 | 0.00 | 52 | 1005.4 |
| 20260505054956 | 69 | 215 | 6.0 | 13.0 | 0.00 | 0.00 | 0.00 | 52 | 1005.5 |
| 20260505053938 | 69 | 257 | 6.0 | 13.0 | 0.00 | 0.00 | 0.00 | 53 | 1005.4 |
| 20260505052911 | 68 | 224 | 5.0 | 13.0 | 0.00 | 0.00 | 0.00 | 53 | 1005.6 |